{"data":{"norad_id":66107,"epoch":"2026-05-25T03:59:50.356320Z","epoch_age_seconds":61414,"freshness":"FRESH","line1":"1 66107U 25236X   26145.16655505  .00018040  00000+0  61956-3 0  9991","line2":"2 66107  53.1587 108.6349 0001249  82.4338 277.6805 15.30208347 34652","mean_motion":15.30208347,"eccentricity":0.0001249,"inclination_deg":53.1587,"raan_deg":108.6349,"arg_perigee_deg":82.4338,"mean_anomaly_deg":277.6805,"bstar":0.00061956,"rev_number":3465,"period_min":94.104832379404,"perigee_km":474.33416633452,"apogee_km":476.04612745582,"semimajor_km":6853.3271468952,"source":"CELESTRAK","updated_at":"2026-05-25T13:38:21.057681Z"}}